owner,sensor,date,latitude,longitude,vertical_datum,sea_water_practical_salinity,qcFlag 
SCCF RECON,ioos:station:SCCF:16:1,2009-10-01T00:00:00Z,26.4345,-81.9647,2.51,32.7,1111122 
SCCF RECON,ioos:station:SCCF:16:1,2009-10-01T01:00:00Z,26.4345,-81.9647,2.591,33.61,1111122 
SCCF RECON,ioos:station:SCCF:16:1,2009-10-01T02:00:00Z,26.4345,-81.9647,2.72,35.11,1111122 
SCCF RECON,ioos:station:SCCF:16:1,2009-10-01T03:00:00Z,26.4345,-81.9647,2.814,35.29,1111122 
SCCF RECON,ioos:station:SCCF:16:1,2009-10-01T04:00:00Z,26.4345,-81.9647,2.876,35.31,1111122 
SCCF RECON,ioos:station:SCCF:16:1,2009-10-01T05:00:00Z,26.4345,-81.9647,2.798,35.35,1111122 
SCCF RECON,ioos:station:SCCF:16:1,2009-10-01T06:00:00Z,26.4345,-81.9647,2.667,35.51,1111122 
SCCF RECON,ioos:station:SCCF:16:1,2009-10-01T07:00:00Z,26.4345,-81.9647,2.521,35.42,1111122 
SCCF RECON,ioos:station:SCCF:16:1,2009-10-01T08:00:00Z,26.4345,-81.9647,2.393,35.15,1111122 
SCCF RECON,ioos:station:SCCF:16:1,2009-10-01T09:00:00Z,26.4345,-81.9647,2.355,34.55,1111122 
SCCF RECON,ioos:station:SCCF:16:1,2009-10-01T10:00:00Z,26.4345,-81.9647,2.421,33.79,1111122 
SCCF RECON,ioos:station:SCCF:16:1,2009-10-01T11:00:00Z,26.4345,-81.9647,2.455,32.21,1111122 
SCCF RECON,ioos:station:SCCF:16:1,2009-10-01T12:00:00Z,26.4345,-81.9647,2.589,34.26,1111122 
SCCF RECON,ioos:station:SCCF:16:1,2009-10-01T13:00:00Z,26.4345,-81.9647,2.741,34.72,1111122 
SCCF RECON,ioos:station:SCCF:16:1,2009-10-01T14:00:00Z,26.4345,-81.9647,2.807,34.87,1111122 
SCCF RECON,ioos:station:SCCF:16:1,2009-10-01T15:00:00Z,26.4345,-81.9647,2.865,34.91,1111122 
SCCF RECON,ioos:station:SCCF:16:1,2009-10-01T16:00:00Z,26.4345,-81.9647,2.861,35.01,1111122 
SCCF RECON,ioos:station:SCCF:16:1,2009-10-01T17:00:00Z,26.4345,-81.9647,2.795,35.04,1111122 
SCCF RECON,ioos:station:SCCF:16:1,2009-10-01T18:00:00Z,26.4345,-81.9647,2.666,35.19,1111122 
SCCF RECON,ioos:station:SCCF:16:1,2009-10-01T19:00:00Z,26.4345,-81.9647,2.534,35.24,1111122 
SCCF RECON,ioos:station:SCCF:16:1,2009-10-01T20:00:00Z,26.4345,-81.9647,2.432,35.1,1111122 
SCCF RECON,ioos:station:SCCF:16:1,2009-10-01T21:00:00Z,26.4345,-81.9647,2.32,34.25,1111122 
SCCF RECON,ioos:station:SCCF:16:1,2009-10-01T22:00:00Z,26.4345,-81.9647,2.253,33.39,1111122 
SCCF RECON,ioos:station:SCCF:16:1,2009-10-01T23:00:00Z,26.4345,-81.9647,2.309,32.24,1111122 
SCCF RECON,ioos:station:SCCF:16:1,2009-10-02T00:00:00Z,26.4345,-81.9647,2.432,32.09,1111122 
SCCF RECON,ioos:station:SCCF:16:1,2009-10-02T01:00:00Z,26.4345,-81.9647,2.614,33.35,1111122 
SCCF RECON,ioos:station:SCCF:16:1,2009-10-02T02:00:00Z,26.4345,-81.9647,2.733,34.17,1111122 
SCCF RECON,ioos:station:SCCF:16:1,2009-10-02T03:00:00Z,26.4345,-81.9647,2.845,34.25,1111122 
SCCF RECON,ioos:station:SCCF:16:1,2009-10-02T04:00:00Z,26.4345,-81.9647,2.906,34.76,1111122 
SCCF RECON,ioos:station:SCCF:16:1,2009-10-02T05:00:00Z,26.4345,-81.9647,2.855,35.02,1111122 
SCCF RECON,ioos:station:SCCF:16:1,2009-10-02T06:00:00Z,26.4345,-81.9647,2.728,35.11,1111122 
SCCF RECON,ioos:station:SCCF:16:1,2009-10-02T07:00:00Z,26.4345,-81.9647,2.563,35.04,1111122 
SCCF RECON,ioos:station:SCCF:16:1,2009-10-02T08:00:00Z,26.4345,-81.9647,2.437,34.74,1111122 
SCCF RECON,ioos:station:SCCF:16:1,2009-10-02T09:00:00Z,26.4345,-81.9647,2.32,34.61,1111122 
SCCF RECON,ioos:station:SCCF:16:1,2009-10-02T10:00:00Z,26.4345,-81.9647,2.295,33.99,1111122 
SCCF RECON,ioos:station:SCCF:16:1,2009-10-02T11:00:00Z,26.4345,-81.9647,2.363,32.89,1111122 
SCCF RECON,ioos:station:SCCF:16:1,2009-10-02T12:00:00Z,26.4345,-81.9647,2.501,32.21,1111122 
SCCF RECON,ioos:station:SCCF:16:1,2009-10-02T13:00:00Z,26.4345,-81.9647,2.65,34.48,1111122 
SCCF RECON,ioos:station:SCCF:16:1,2009-10-02T14:00:00Z,26.4345,-81.9647,2.784,34.74,1111122 
SCCF RECON,ioos:station:SCCF:16:1,2009-10-02T15:00:00Z,26.4345,-81.9647,2.858,35.01,1111122 
SCCF RECON,ioos:station:SCCF:16:1,2009-10-02T16:00:00Z,26.4345,-81.9647,2.926,35.11,1111122 
SCCF RECON,ioos:station:SCCF:16:1,2009-10-02T17:00:00Z,26.4345,-81.9647,2.906,35.22,1111122 
SCCF RECON,ioos:station:SCCF:16:1,2009-10-02T18:00:00Z,26.4345,-81.9647,2.797,35.33,1111122 
SCCF RECON,ioos:station:SCCF:16:1,2009-10-02T19:00:00Z,26.4345,-81.9647,2.58,35.25,1111122 
SCCF RECON,ioos:station:SCCF:16:1,2009-10-02T20:00:00Z,26.4345,-81.9647,2.417,35.02,1111122 
SCCF RECON,ioos:station:SCCF:16:1,2009-10-02T21:00:00Z,26.4345,-81.9647,2.359,34.41,1111122 
SCCF RECON,ioos:station:SCCF:16:1,2009-10-02T22:00:00Z,26.4345,-81.9647,2.296,33.6,1111122 
SCCF RECON,ioos:station:SCCF:16:1,2009-10-02T23:00:00Z,26.4345,-81.9647,2.304,32.6,1111122 
SCCF RECON,ioos:station:SCCF:16:1,2009-10-03T00:00:00Z,26.4345,-81.9647,2.393,32.15,1111122 
SCCF RECON,ioos:station:SCCF:16:1,2009-10-03T01:00:00Z,26.4345,-81.9647,2.542,33.56,1111122 
SCCF RECON,ioos:station:SCCF:16:1,2009-10-03T02:00:00Z,26.4345,-81.9647,2.706,33.27,1111122 
SCCF RECON,ioos:station:SCCF:16:1,2009-10-03T03:00:00Z,26.4345,-81.9647,2.795,35.07,1111122 
SCCF RECON,ioos:station:SCCF:16:1,2009-10-03T04:00:00Z,26.4345,-81.9647,2.874,35.34,1111122 
SCCF RECON,ioos:station:SCCF:16:1,2009-10-03T05:00:00Z,26.4345,-81.9647,2.871,35.33,1111122 
SCCF RECON,ioos:station:SCCF:16:1,2009-10-03T06:00:00Z,26.4345,-81.9647,2.783,35.37,1111122 
SCCF RECON,ioos:station:SCCF:16:1,2009-10-03T07:00:00Z,26.4345,-81.9647,2.612,35.36,1111122 
SCCF RECON,ioos:station:SCCF:16:1,2009-10-03T08:00:00Z,26.4345,-81.9647,2.439,35.34,1111122 
SCCF RECON,ioos:station:SCCF:16:1,2009-10-03T09:00:00Z,26.4345,-81.9647,2.29,34.88,1111122 
SCCF RECON,ioos:station:SCCF:16:1,2009-10-03T10:00:00Z,26.4345,-81.9647,2.148,33.57,1111122 
SCCF RECON,ioos:station:SCCF:16:1,2009-10-03T11:00:00Z,26.4345,-81.9647,2.149,33.19,1111122 
SCCF RECON,ioos:station:SCCF:16:1,2009-10-03T12:00:00Z,26.4345,-81.9647,2.249,32.81,1111122 
SCCF RECON,ioos:station:SCCF:16:1,2009-10-03T13:00:00Z,26.4345,-81.9647,2.5,33.14,1111122 
SCCF RECON,ioos:station:SCCF:16:1,2009-10-03T14:00:00Z,26.4345,-81.9647,2.703,33.75,1111122 
SCCF RECON,ioos:station:SCCF:16:1,2009-10-03T15:00:00Z,26.4345,-81.9647,2.788,34.77,1111122 
SCCF RECON,ioos:station:SCCF:16:1,2009-10-03T16:00:00Z,26.4345,-81.9647,2.875,35.07,1111122 
SCCF RECON,ioos:station:SCCF:16:1,2009-10-03T17:00:00Z,26.4345,-81.9647,2.909,35.06,1111122 
SCCF RECON,ioos:station:SCCF:16:1,2009-10-03T18:00:00Z,26.4345,-81.9647,2.834,34.94,1111122 
SCCF RECON,ioos:station:SCCF:16:1,2009-10-03T19:00:00Z,26.4345,-81.9647,2.693,35.02,1111122 
SCCF RECON,ioos:station:SCCF:16:1,2009-10-03T20:00:00Z,26.4345,-81.9647,2.533,34.98,1111122 
SCCF RECON,ioos:station:SCCF:16:1,2009-10-03T21:00:00Z,26.4345,-81.9647,2.442,34.79,1111122 
SCCF RECON,ioos:station:SCCF:16:1,2009-10-03T22:00:00Z,26.4345,-81.9647,2.346,34.16,1111122 
SCCF RECON,ioos:station:SCCF:16:1,2009-10-03T23:00:00Z,26.4345,-81.9647,2.275,33.44,1111122 
SCCF RECON,ioos:station:SCCF:16:1,2009-10-04T00:00:00Z,26.4345,-81.9647,2.333,33.01,1111122 
SCCF RECON,ioos:station:SCCF:16:1,2009-10-04T01:00:00Z,26.4345,-81.9647,2.519,32.91,1111122 
SCCF RECON,ioos:station:SCCF:16:1,2009-10-04T02:00:00Z,26.4345,-81.9647,2.698,33.78,1111122 
SCCF RECON,ioos:station:SCCF:16:1,2009-10-04T03:00:00Z,26.4345,-81.9647,2.824,34.49,1111122 
SCCF RECON,ioos:station:SCCF:16:1,2009-10-04T04:00:00Z,26.4345,-81.9647,2.891,34.87,1111122 
SCCF RECON,ioos:station:SCCF:16:1,2009-10-04T05:00:00Z,26.4345,-81.9647,2.906,35.01,1111122 
SCCF RECON,ioos:station:SCCF:16:1,2009-10-04T06:00:00Z,26.4345,-81.9647,2.833,35.05,1111122 
SCCF RECON,ioos:station:SCCF:16:1,2009-10-04T07:00:00Z,26.4345,-81.9647,2.67,35.15,1111122 
SCCF RECON,ioos:station:SCCF:16:1,2009-10-04T08:00:00Z,26.4345,-81.9647,2.457,35.02,1111122 
SCCF RECON,ioos:station:SCCF:16:1,2009-10-04T09:00:00Z,26.4345,-81.9647,2.283,34.14,1111122 
SCCF RECON,ioos:station:SCCF:16:1,2009-10-04T10:00:00Z,26.4345,-81.9647,2.145,33.28,1111122 
SCCF RECON,ioos:station:SCCF:16:1,2009-10-04T11:00:00Z,26.4345,-81.9647,2.052,33.83,1111122 
SCCF RECON,ioos:station:SCCF:16:1,2009-10-04T12:00:00Z,26.4345,-81.9647,2.088,32.56,1111122 
SCCF RECON,ioos:station:SCCF:16:1,2009-10-04T13:00:00Z,26.4345,-81.9647,2.291,31.8,1111122 
SCCF RECON,ioos:station:SCCF:16:1,2009-10-04T14:00:00Z,26.4345,-81.9647,2.549,33.51,1111122 
SCCF RECON,ioos:station:SCCF:16:1,2009-10-04T15:00:00Z,26.4345,-81.9647,2.712,34.11,1111122 
SCCF RECON,ioos:station:SCCF:16:1,2009-10-04T16:00:00Z,26.4345,-81.9647,2.797,34.51,1111122 
SCCF RECON,ioos:station:SCCF:16:1,2009-10-04T17:00:00Z,26.4345,-81.9647,2.863,34.44,1111122 
SCCF RECON,ioos:station:SCCF:16:1,2009-10-04T18:00:00Z,26.4345,-81.9647,2.854,35.02,1111122 
SCCF RECON,ioos:station:SCCF:16:1,2009-10-04T19:00:00Z,26.4345,-81.9647,2.785,34.94,1111122 
SCCF RECON,ioos:station:SCCF:16:1,2009-10-04T20:00:00Z,26.4345,-81.9647,2.655,34.99,1111122 
SCCF RECON,ioos:station:SCCF:16:1,2009-10-04T21:00:00Z,26.4345,-81.9647,2.557,34.53,1111122 
SCCF RECON,ioos:station:SCCF:16:1,2009-10-04T22:00:00Z,26.4345,-81.9647,2.462,34.44,1111122 
SCCF RECON,ioos:station:SCCF:16:1,2009-10-04T23:00:00Z,26.4345,-81.9647,2.413,34.72,1111122 
SCCF RECON,ioos:station:SCCF:16:1,2009-10-05T00:00:00Z,26.4345,-81.9647,2.406,33.85,1111122 
SCCF RECON,ioos:station:SCCF:16:1,2009-10-05T01:00:00Z,26.4345,-81.9647,2.489,32.7,1111122 
SCCF RECON,ioos:station:SCCF:16:1,2009-10-05T02:00:00Z,26.4345,-81.9647,2.679,34.19,1111122 
SCCF RECON,ioos:station:SCCF:16:1,2009-10-05T03:00:00Z,26.4345,-81.9647,2.849,34.79,1111122 
SCCF RECON,ioos:station:SCCF:16:1,2009-10-05T04:00:00Z,26.4345,-81.9647,2.931,34.56,1111122 
SCCF RECON,ioos:station:SCCF:16:1,2009-10-05T05:00:00Z,26.4345,-81.9647,2.944,34.38,1111122 
SCCF RECON,ioos:station:SCCF:16:1,2009-10-05T06:00:00Z,26.4345,-81.9647,2.936,33.84,1111122 
SCCF RECON,ioos:station:SCCF:16:1,2009-10-05T07:00:00Z,26.4345,-81.9647,2.827,34.01,1111122 
SCCF RECON,ioos:station:SCCF:16:1,2009-10-05T08:00:00Z,26.4345,-81.9647,2.605,34.03,1111122 
SCCF RECON,ioos:station:SCCF:16:1,2009-10-05T09:00:00Z,26.4345,-81.9647,2.414,34.03,1111122 
SCCF RECON,ioos:station:SCCF:16:1,2009-10-05T10:00:00Z,26.4345,-81.9647,2.241,33.84,1111122 
SCCF RECON,ioos:station:SCCF:16:1,2009-10-05T11:00:00Z,26.4345,-81.9647,2.083,33.62,1111122 
SCCF RECON,ioos:station:SCCF:16:1,2009-10-05T12:00:00Z,26.4345,-81.9647,2.007,33.14,1111122 
SCCF RECON,ioos:station:SCCF:16:1,2009-10-05T13:00:00Z,26.4345,-81.9647,2.192,33.02,1111122 
SCCF RECON,ioos:station:SCCF:16:1,2009-10-05T14:00:00Z,26.4345,-81.9647,2.436,32.96,1111122 
SCCF RECON,ioos:station:SCCF:16:1,2009-10-05T15:00:00Z,26.4345,-81.9647,2.667,33.49,1111122 
SCCF RECON,ioos:station:SCCF:16:1,2009-10-05T16:00:00Z,26.4345,-81.9647,2.778,33.63,1111122 
SCCF RECON,ioos:station:SCCF:16:1,2009-10-05T17:00:00Z,26.4345,-81.9647,2.87,33.62,1111122 
SCCF RECON,ioos:station:SCCF:16:1,2009-10-05T18:00:00Z,26.4345,-81.9647,2.876,33.76,1111122 
SCCF RECON,ioos:station:SCCF:16:1,2009-10-05T19:00:00Z,26.4345,-81.9647,2.821,33.92,1111122 
SCCF RECON,ioos:station:SCCF:16:1,2009-10-05T20:00:00Z,26.4345,-81.9647,2.728,33.89,1111122 
SCCF RECON,ioos:station:SCCF:16:1,2009-10-05T21:00:00Z,26.4345,-81.9647,2.621,33.77,1111122 
SCCF RECON,ioos:station:SCCF:16:1,2009-10-05T22:00:00Z,26.4345,-81.9647,2.549,33.78,1111122 
SCCF RECON,ioos:station:SCCF:16:1,2009-10-05T23:00:00Z,26.4345,-81.9647,2.484,33.71,1111122 
SCCF RECON,ioos:station:SCCF:16:1,2009-10-06T00:00:00Z,26.4345,-81.9647,2.425,33.76,1111122 
SCCF RECON,ioos:station:SCCF:16:1,2009-10-06T01:00:00Z,26.4345,-81.9647,2.471,33.77,1111122 
SCCF RECON,ioos:station:SCCF:16:1,2009-10-06T02:00:00Z,26.4345,-81.9647,2.631,33.65,1111122 
SCCF RECON,ioos:station:SCCF:16:1,2009-10-06T03:00:00Z,26.4345,-81.9647,2.789,33.97,1111122 
SCCF RECON,ioos:station:SCCF:16:1,2009-10-06T04:00:00Z,26.4345,-81.9647,2.899,33.92,1111122 
SCCF RECON,ioos:station:SCCF:16:1,2009-10-06T05:00:00Z,26.4345,-81.9647,2.965,33.9,1111122 
SCCF RECON,ioos:station:SCCF:16:1,2009-10-06T06:00:00Z,26.4345,-81.9647,2.966,34.28,1111122 
SCCF RECON,ioos:station:SCCF:16:1,2009-10-06T07:00:00Z,26.4345,-81.9647,2.889,34.41,1111122 
SCCF RECON,ioos:station:SCCF:16:1,2009-10-06T08:00:00Z,26.4345,-81.9647,2.722,34.39,1111122 
SCCF RECON,ioos:station:SCCF:16:1,2009-10-06T09:00:00Z,26.4345,-81.9647,2.5,33.87,1111122 
SCCF RECON,ioos:station:SCCF:16:1,2009-10-06T10:00:00Z,26.4345,-81.9647,2.31,33.8,1111122 
SCCF RECON,ioos:station:SCCF:16:1,2009-10-06T11:00:00Z,26.4345,-81.9647,2.126,33.68,1111122 
SCCF RECON,ioos:station:SCCF:16:1,2009-10-06T12:00:00Z,26.4345,-81.9647,1.996,33.28,1111122 
SCCF RECON,ioos:station:SCCF:16:1,2009-10-06T13:00:00Z,26.4345,-81.9647,2.007,32.9,1111122 
SCCF RECON,ioos:station:SCCF:16:1,2009-10-06T14:00:00Z,26.4345,-81.9647,2.194,32.33,1111122 
SCCF RECON,ioos:station:SCCF:16:1,2009-10-06T15:00:00Z,26.4345,-81.9647,2.45,33.26,1111122 
SCCF RECON,ioos:station:SCCF:16:1,2009-10-06T16:00:00Z,26.4345,-81.9647,2.637,33.95,1111122 
SCCF RECON,ioos:station:SCCF:16:1,2009-10-06T17:00:00Z,26.4345,-81.9647,2.745,33.92,1111122 
SCCF RECON,ioos:station:SCCF:16:1,2009-10-06T18:00:00Z,26.4345,-81.9647,2.815,33.99,1111122 
SCCF RECON,ioos:station:SCCF:16:1,2009-10-06T19:00:00Z,26.4345,-81.9647,2.833,34.09,1111122 
SCCF RECON,ioos:station:SCCF:16:1,2009-10-06T20:00:00Z,26.4345,-81.9647,2.772,34.11,1111122 
SCCF RECON,ioos:station:SCCF:16:1,2009-10-06T21:00:00Z,26.4345,-81.9647,2.684,34.1,1111122 
SCCF RECON,ioos:station:SCCF:16:1,2009-10-06T22:00:00Z,26.4345,-81.9647,2.592,34.32,1111122 
SCCF RECON,ioos:station:SCCF:16:1,2009-10-06T23:00:00Z,26.4345,-81.9647,2.561,34.31,1111122 
SCCF RECON,ioos:station:SCCF:16:1,2009-10-07T00:00:00Z,26.4345,-81.9647,2.505,34.26,1111122 
SCCF RECON,ioos:station:SCCF:16:1,2009-10-07T01:00:00Z,26.4345,-81.9647,2.541,34.09,1111122 
SCCF RECON,ioos:station:SCCF:16:1,2009-10-07T02:00:00Z,26.4345,-81.9647,2.623,34.17,1111122 
SCCF RECON,ioos:station:SCCF:16:1,2009-10-07T03:00:00Z,26.4345,-81.9647,2.799,34.36,1111122 
SCCF RECON,ioos:station:SCCF:16:1,2009-10-07T04:00:00Z,26.4345,-81.9647,2.932,34.55,1111122 
SCCF RECON,ioos:station:SCCF:16:1,2009-10-07T05:00:00Z,26.4345,-81.9647,2.974,34.58,1111122 
SCCF RECON,ioos:station:SCCF:16:1,2009-10-07T06:00:00Z,26.4345,-81.9647,3.033,34.57,1111122 
SCCF RECON,ioos:station:SCCF:16:1,2009-10-07T07:00:00Z,26.4345,-81.9647,2.977,34.66,1111122 
SCCF RECON,ioos:station:SCCF:16:1,2009-10-07T08:00:00Z,26.4345,-81.9647,2.854,34.69,1111122 
SCCF RECON,ioos:station:SCCF:16:1,2009-10-07T09:00:00Z,26.4345,-81.9647,2.651,34.54,1111122 
SCCF RECON,ioos:station:SCCF:16:1,2009-10-07T10:00:00Z,26.4345,-81.9647,2.485,34.36,1111122 
SCCF RECON,ioos:station:SCCF:16:1,2009-10-07T11:00:00Z,26.4345,-81.9647,2.299,33.94,1111122 
SCCF RECON,ioos:station:SCCF:16:1,2009-10-07T12:00:00Z,26.4345,-81.9647,2.107,33.58,1111122 
SCCF RECON,ioos:station:SCCF:16:1,2009-10-07T13:00:00Z,26.4345,-81.9647,2.042,33.59,1111122 
SCCF RECON,ioos:station:SCCF:16:1,2009-10-07T14:00:00Z,26.4345,-81.9647,2.081,32.46,1111122 
SCCF RECON,ioos:station:SCCF:16:1,2009-10-07T15:00:00Z,26.4345,-81.9647,2.283,32.7,1111122 
SCCF RECON,ioos:station:SCCF:16:1,2009-10-07T17:00:00Z,26.4345,-81.9647,2.61,34.02,1111122 
SCCF RECON,ioos:station:SCCF:16:1,2009-10-07T18:00:00Z,26.4345,-81.9647,2.672,34.14,1111122 
SCCF RECON,ioos:station:SCCF:16:1,2009-10-07T19:00:00Z,26.4345,-81.9647,2.737,34.27,1111122 
SCCF RECON,ioos:station:SCCF:16:1,2009-10-07T20:00:00Z,26.4345,-81.9647,2.744,34.47,1111122 
SCCF RECON,ioos:station:SCCF:16:1,2009-10-07T21:00:00Z,26.4345,-81.9647,2.686,34.57,1111122 
SCCF RECON,ioos:station:SCCF:16:1,2009-10-07T22:00:00Z,26.4345,-81.9647,2.611,34.64,1111122 
SCCF RECON,ioos:station:SCCF:16:1,2009-10-07T23:00:00Z,26.4345,-81.9647,2.561,34.64,1111122 
SCCF RECON,ioos:station:SCCF:16:1,2009-10-08T00:00:00Z,26.4345,-81.9647,2.51,34.64,1111122 
SCCF RECON,ioos:station:SCCF:16:1,2009-10-08T01:00:00Z,26.4345,-81.9647,2.486,34.21,1111122 
SCCF RECON,ioos:station:SCCF:16:1,2009-10-08T02:00:00Z,26.4345,-81.9647,2.54,34.45,1111122 
SCCF RECON,ioos:station:SCCF:16:1,2009-10-08T03:00:00Z,26.4345,-81.9647,2.653,34.55,1111122 
SCCF RECON,ioos:station:SCCF:16:1,2009-10-08T04:00:00Z,26.4345,-81.9647,2.801,34.68,1111122 
SCCF RECON,ioos:station:SCCF:16:1,2009-10-08T05:00:00Z,26.4345,-81.9647,2.896,34.62,1111122 
SCCF RECON,ioos:station:SCCF:16:1,2009-10-08T06:00:00Z,26.4345,-81.9647,2.926,34.55,1111122 
SCCF RECON,ioos:station:SCCF:16:1,2009-10-08T07:00:00Z,26.4345,-81.9647,2.912,34.55,1111122 
SCCF RECON,ioos:station:SCCF:16:1,2009-10-08T08:00:00Z,26.4345,-81.9647,2.853,34.64,1111122 
SCCF RECON,ioos:station:SCCF:16:1,2009-10-08T09:00:00Z,26.4345,-81.9647,2.726,34.65,1111122 
SCCF RECON,ioos:station:SCCF:16:1,2009-10-08T10:00:00Z,26.4345,-81.9647,2.551,34.55,1111122 
SCCF RECON,ioos:station:SCCF:16:1,2009-10-08T11:00:00Z,26.4345,-81.9647,2.351,34.26,1111122 
SCCF RECON,ioos:station:SCCF:16:1,2009-10-08T12:00:00Z,26.4345,-81.9647,2.174,33.71,1111122 
SCCF RECON,ioos:station:SCCF:16:1,2009-10-08T13:00:00Z,26.4345,-81.9647,2.027,33.77,1111122 
SCCF RECON,ioos:station:SCCF:16:1,2009-10-08T14:00:00Z,26.4345,-81.9647,1.96,32.44,1111122 
SCCF RECON,ioos:station:SCCF:16:1,2009-10-08T15:00:00Z,26.4345,-81.9647,2.053,31.31,1111122 
SCCF RECON,ioos:station:SCCF:16:1,2009-10-08T16:00:00Z,26.4345,-81.9647,2.237,31.75,1111122 
SCCF RECON,ioos:station:SCCF:16:1,2009-10-08T17:00:00Z,26.4345,-81.9647,2.404,32.64,1111122 
SCCF RECON,ioos:station:SCCF:16:1,2009-10-08T18:00:00Z,26.4345,-81.9647,2.508,33.06,1111122 
SCCF RECON,ioos:station:SCCF:16:1,2009-10-08T19:00:00Z,26.4345,-81.9647,2.606,34.03,1111122 
SCCF RECON,ioos:station:SCCF:16:1,2009-10-08T20:00:00Z,26.4345,-81.9647,2.667,34.63,1111122 
SCCF RECON,ioos:station:SCCF:16:1,2009-10-08T21:00:00Z,26.4345,-81.9647,2.667,34.67,1111122 
SCCF RECON,ioos:station:SCCF:16:1,2009-10-08T22:00:00Z,26.4345,-81.9647,2.652,34.63,1111122 
SCCF RECON,ioos:station:SCCF:16:1,2009-10-08T23:00:00Z,26.4345,-81.9647,2.609,34.73,1111122 
SCCF RECON,ioos:station:SCCF:16:1,2009-10-09T00:00:00Z,26.4345,-81.9647,2.561,34.77,1111122 
SCCF RECON,ioos:station:SCCF:16:1,2009-10-09T01:00:00Z,26.4345,-81.9647,2.545,34.82,1111122 
SCCF RECON,ioos:station:SCCF:16:1,2009-10-09T02:00:00Z,26.4345,-81.9647,2.582,34.78,1111122 
SCCF RECON,ioos:station:SCCF:16:1,2009-10-09T03:00:00Z,26.4345,-81.9647,2.674,34.73,1111122 
SCCF RECON,ioos:station:SCCF:16:1,2009-10-09T04:00:00Z,26.4345,-81.9647,2.768,34.58,1111122 
SCCF RECON,ioos:station:SCCF:16:1,2009-10-09T05:00:00Z,26.4345,-81.9647,2.854,34.23,1111122 
SCCF RECON,ioos:station:SCCF:16:1,2009-10-09T06:00:00Z,26.4345,-81.9647,2.908,34.3,1111122 
SCCF RECON,ioos:station:SCCF:16:1,2009-10-09T07:00:00Z,26.4345,-81.9647,2.913,34.33,1111122 
SCCF RECON,ioos:station:SCCF:16:1,2009-10-09T08:00:00Z,26.4345,-81.9647,2.923,34.33,1111122 
SCCF RECON,ioos:station:SCCF:16:1,2009-10-09T09:00:00Z,26.4345,-81.9647,2.88,34.4,1111122 
SCCF RECON,ioos:station:SCCF:16:1,2009-10-09T10:00:00Z,26.4345,-81.9647,2.75,34.41,1111122 
SCCF RECON,ioos:station:SCCF:16:1,2009-10-09T11:00:00Z,26.4345,-81.9647,2.609,34.46,1111122 
SCCF RECON,ioos:station:SCCF:16:1,2009-10-09T12:00:00Z,26.4345,-81.9647,2.434,34.42,1111122 
SCCF RECON,ioos:station:SCCF:16:1,2009-10-09T13:00:00Z,26.4345,-81.9647,2.243,34.19,1111122 
SCCF RECON,ioos:station:SCCF:16:1,2009-10-09T14:00:00Z,26.4345,-81.9647,2.124,34.54,1111122 
SCCF RECON,ioos:station:SCCF:16:1,2009-10-09T15:00:00Z,26.4345,-81.9647,2.067,34.1,1111122 
SCCF RECON,ioos:station:SCCF:16:1,2009-10-09T16:00:00Z,26.4345,-81.9647,2.168,33.04,1111122 
SCCF RECON,ioos:station:SCCF:16:1,2009-10-09T17:00:00Z,26.4345,-81.9647,2.31,33.11,1111122 
SCCF RECON,ioos:station:SCCF:16:1,2009-10-09T18:00:00Z,26.4345,-81.9647,2.43,34.11,1111122 
SCCF RECON,ioos:station:SCCF:16:1,2009-10-09T19:00:00Z,26.4345,-81.9647,2.51,34.45,1111122 
SCCF RECON,ioos:station:SCCF:16:1,2009-10-09T20:00:00Z,26.4345,-81.9647,2.564,34.5,1111122 
SCCF RECON,ioos:station:SCCF:16:1,2009-10-09T21:00:00Z,26.4345,-81.9647,2.627,34.44,1111122 
SCCF RECON,ioos:station:SCCF:16:1,2009-10-09T22:00:00Z,26.4345,-81.9647,2.667,34.41,1111122 
SCCF RECON,ioos:station:SCCF:16:1,2009-10-09T23:00:00Z,26.4345,-81.9647,2.673,34.4,1111122 
SCCF RECON,ioos:station:SCCF:16:1,2009-10-10T00:00:00Z,26.4345,-81.9647,2.643,34.39,1111122 
SCCF RECON,ioos:station:SCCF:16:1,2009-10-10T01:00:00Z,26.4345,-81.9647,2.617,34.38,1111122 
SCCF RECON,ioos:station:SCCF:16:1,2009-10-10T02:00:00Z,26.4345,-81.9647,2.607,34.38,1111122 
SCCF RECON,ioos:station:SCCF:16:1,2009-10-10T03:00:00Z,26.4345,-81.9647,2.624,34.38,1111122 
SCCF RECON,ioos:station:SCCF:16:1,2009-10-10T04:00:00Z,26.4345,-81.9647,2.659,34.43,1111122 
SCCF RECON,ioos:station:SCCF:16:1,2009-10-10T05:00:00Z,26.4345,-81.9647,2.725,34.41,1111122 
SCCF RECON,ioos:station:SCCF:16:1,2009-10-10T06:00:00Z,26.4345,-81.9647,2.818,34.39,1111122 
SCCF RECON,ioos:station:SCCF:16:1,2009-10-10T07:00:00Z,26.4345,-81.9647,2.882,34.4,1111122 
SCCF RECON,ioos:station:SCCF:16:1,2009-10-10T08:00:00Z,26.4345,-81.9647,2.898,34.42,1111122 
SCCF RECON,ioos:station:SCCF:16:1,2009-10-10T09:00:00Z,26.4345,-81.9647,2.882,34.4,1111122 
SCCF RECON,ioos:station:SCCF:16:1,2009-10-10T10:00:00Z,26.4345,-81.9647,2.832,34.4,1111122 
SCCF RECON,ioos:station:SCCF:16:1,2009-10-10T11:00:00Z,26.4345,-81.9647,2.752,34.39,1111122 
SCCF RECON,ioos:station:SCCF:16:1,2009-10-10T12:00:00Z,26.4345,-81.9647,2.628,34.35,1111122 
SCCF RECON,ioos:station:SCCF:16:1,2009-10-10T13:00:00Z,26.4345,-81.9647,2.471,34.28,1111122 
SCCF RECON,ioos:station:SCCF:16:1,2009-10-10T14:00:00Z,26.4345,-81.9647,2.288,34.07,1111122 
SCCF RECON,ioos:station:SCCF:16:1,2009-10-10T15:00:00Z,26.4345,-81.9647,2.103,34.05,1111122 
SCCF RECON,ioos:station:SCCF:16:1,2009-10-10T16:00:00Z,26.4345,-81.9647,2.098,34.06,1111122 
SCCF RECON,ioos:station:SCCF:16:1,2009-10-10T17:00:00Z,26.4345,-81.9647,2.179,33.66,1111122 
SCCF RECON,ioos:station:SCCF:16:1,2009-10-10T18:00:00Z,26.4345,-81.9647,2.309,33.52,1111122 
SCCF RECON,ioos:station:SCCF:16:1,2009-10-10T19:00:00Z,26.4345,-81.9647,2.415,34.18,1111122 
SCCF RECON,ioos:station:SCCF:16:1,2009-10-10T20:00:00Z,26.4345,-81.9647,2.48,34.38,1111122 
SCCF RECON,ioos:station:SCCF:16:1,2009-10-10T21:00:00Z,26.4345,-81.9647,2.554,34.4,1111122 
SCCF RECON,ioos:station:SCCF:16:1,2009-10-10T22:00:00Z,26.4345,-81.9647,2.598,34.36,1111122 
SCCF RECON,ioos:station:SCCF:16:1,2009-10-10T23:00:00Z,26.4345,-81.9647,2.68,34.39,1111122 
SCCF RECON,ioos:station:SCCF:16:1,2009-10-11T00:00:00Z,26.4345,-81.9647,2.69,34.34,1111122 
SCCF RECON,ioos:station:SCCF:16:1,2009-10-11T01:00:00Z,26.4345,-81.9647,2.674,34.4,1111122 
SCCF RECON,ioos:station:SCCF:16:1,2009-10-11T02:00:00Z,26.4345,-81.9647,2.649,34.39,1111122 
SCCF RECON,ioos:station:SCCF:16:1,2009-10-11T03:00:00Z,26.4345,-81.9647,2.627,34.42,1111122 
SCCF RECON,ioos:station:SCCF:16:1,2009-10-11T04:00:00Z,26.4345,-81.9647,2.615,34.45,1111122 
SCCF RECON,ioos:station:SCCF:16:1,2009-10-11T05:00:00Z,26.4345,-81.9647,2.631,34.45,1111122 
SCCF RECON,ioos:station:SCCF:16:1,2009-10-11T06:00:00Z,26.4345,-81.9647,2.692,34.45,1111122 
SCCF RECON,ioos:station:SCCF:16:1,2009-10-11T07:00:00Z,26.4345,-81.9647,2.752,34.42,1111122 
SCCF RECON,ioos:station:SCCF:16:1,2009-10-11T08:00:00Z,26.4345,-81.9647,2.783,34.42,1111122 
SCCF RECON,ioos:station:SCCF:16:1,2009-10-11T09:00:00Z,26.4345,-81.9647,2.805,34.46,1111122 
SCCF RECON,ioos:station:SCCF:16:1,2009-10-11T10:00:00Z,26.4345,-81.9647,2.825,34.47,1111122 
SCCF RECON,ioos:station:SCCF:16:1,2009-10-11T11:00:00Z,26.4345,-81.9647,2.832,34.56,1111122 
SCCF RECON,ioos:station:SCCF:16:1,2009-10-11T12:00:00Z,26.4345,-81.9647,2.765,34.54,1111122 
SCCF RECON,ioos:station:SCCF:16:1,2009-10-11T13:00:00Z,26.4345,-81.9647,2.624,34.48,1111122 
SCCF RECON,ioos:station:SCCF:16:1,2009-10-11T14:00:00Z,26.4345,-81.9647,2.472,34.39,1111122 
SCCF RECON,ioos:station:SCCF:16:1,2009-10-11T15:00:00Z,26.4345,-81.9647,2.302,34.14,1111122 
SCCF RECON,ioos:station:SCCF:16:1,2009-10-11T16:00:00Z,26.4345,-81.9647,2.158,33.95,1111122 
SCCF RECON,ioos:station:SCCF:16:1,2009-10-11T17:00:00Z,26.4345,-81.9647,2.091,34.25,1111122 